Tracking 20942 objects as of 12-Jul-2020
HD Live streaming from Space Station
objects crossing your sky now

COSMOS 1937

Track COSMOS 1937 now!
10-day predictions
COSMOS 1937 is classified as:


NORAD ID: 19038
Int'l Code: 1988-029A
Perigee: 764.4 km
Apogee: 798.6 km
Inclination: 74.0 °
Period: 100.3 minutes
Semi major axis: 7152 km
RCS: 2.2121 m2 (large)
Launch date: April 5, 1988
Source: Commonwealth of Independent States (former USSR) (CIS)
Launch site: PLESETSK MISSILE AND SPACE COMPLEX (PKMTR)
aabbcc
Your satellite tracking list
Your tracking list is empty




NASA's NSSDC Master Catalog

Two Line Element Set (TLE):
1 19038U 88029A   20193.78961774 +.00000013 +00000-0 +13501-4 0  9990
2 19038 074.0464 116.3989 0023925 012.9897 050.1224 14.35222546688877
Source of the keplerian elements: AFSPC